| time (UTC) | temp F | wind direction | speed MPH | gust MPH | rain 1hr in | rain 24hr in | rain mn in | humidity % | barometer mb |
| 20260504184858 | 68 | 79 | 2.0 | 9.0 | 0.00 | 0.00 | 0.00 | 34 | 1173.0 |
| 20260504184354 | 69 | 27 | 1.0 | 6.0 | 0.00 | 0.00 | 0.00 | 35 | 1172.9 |
| 20260504183850 | 68 | 77 | 3.0 | 6.0 | 0.00 | 0.00 | 0.00 | 33 | 1173.1 |
| 20260504183348 | 68 | 103 | 9.0 | 13.0 | 0.00 | 0.00 | 0.00 | 32 | 1173.0 |
| 20260504182845 | 68 | 73 | 6.0 | 7.0 | 0.00 | 0.00 | 0.00 | 32 | 1172.9 |
| 20260504182343 | 67 | 91 | 2.0 | 9.0 | 0.00 | 0.00 | 0.00 | 35 | 1173.1 |
| 20260504181839 | 68 | 63 | 4.0 | 8.0 | 0.00 | 0.00 | 0.00 | 33 | 1173.1 |
| 20260504181337 | 67 | 146 | 7.0 | 11.0 | 0.00 | 0.00 | 0.00 | 33 | 1173.3 |
| 20260504180836 | 67 | 133 | 5.0 | 8.0 | 0.00 | 0.00 | 0.00 | 35 | 1173.1 |
| 20260504180333 | 67 | 6 | 8.0 | 10.0 | 0.00 | 0.00 | 0.00 | 34 | 1173.3 |
| 20260504175832 | 68 | 25 | 3.0 | 9.0 | 0.00 | 0.00 | 0.00 | 35 | 1173.4 |
| 20260504175328 | 68 | 41 | 4.0 | 8.0 | 0.00 | 0.00 | 0.00 | 35 | 1173.3 |
| 20260504174826 | 67 | 54 | 3.0 | 10.0 | 0.00 | 0.00 | 0.00 | 36 | 1173.1 |
| 20260504174323 | 68 | 39 | 2.0 | 7.0 | 0.00 | 0.00 | 0.00 | 37 | 1173.3 |
| 20260504173820 | 68 | 94 | 4.0 | 7.0 | 0.00 | 0.00 | 0.00 | 36 | 1173.3 |
| 20260504173317 | 68 | 62 | 3.0 | 6.0 | 0.00 | 0.00 | 0.00 | 38 | 1173.1 |
| 20260504172814 | 67 | 18 | 1.0 | 4.0 | 0.00 | 0.00 | 0.00 | 38 | 1173.1 |
| 20260504172310 | 67 | 70 | 4.0 | 9.0 | 0.00 | 0.00 | 0.00 | 37 | 1173.0 |
| 20260504171806 | 65 | 135 | 2.0 | 6.0 | 0.00 | 0.00 | 0.00 | 39 | 1173.0 |
| 20260504171304 | 65 | 52 | 4.0 | 7.0 | 0.00 | 0.00 | 0.00 | 37 | 1173.1 |
| 20260504170801 | 66 | 45 | 3.0 | 8.0 | 0.00 | 0.00 | 0.00 | 36 | 1173.3 |
| 20260504170258 | 66 | 353 | 1.0 | 7.0 | 0.00 | 0.00 | 0.00 | 36 | 1173.1 |
| 20260504160216 | 65 | 58 | 5.0 | 8.0 | 0.00 | 0.00 | 0.00 | 35 | 1173.1 |
| 20260504151144 | 63 | 44 | 2.0 | 4.0 | 0.00 | 0.00 | 0.00 | 38 | 1173.1 |
| 20260504150641 | 63 | 43 | 4.0 | 8.0 | 0.00 | 0.00 | 0.00 | 38 | 1173.0 |
| 20260504150138 | 63 | 37 | 4.0 | 6.0 | 0.00 | 0.00 | 0.00 | 38 | 1173.1 |
| 20260504141107 | 62 | 38 | 1.0 | 6.0 | 0.00 | 0.00 | 0.00 | 40 | 1172.9 |
| 20260504140603 | 61 | 15 | 3.0 | 4.0 | 0.00 | 0.00 | 0.00 | 40 | 1172.7 |
| 20260504130527 | 59 | 36 | 1.0 | 6.0 | 0.00 | 0.00 | 0.00 | 42 | 1172.7 |
| 20260504110415 | 60 | 1 | 2.0 | 4.0 | 0.00 | 0.00 | 0.00 | 40 | 1172.8 |
| 20260504100332 | 61 | 26 | 3.0 | 4.0 | 0.00 | 0.00 | 0.00 | 40 | 1172.9 |
| 20260504081725 | 62 | 28 | 1.0 | 3.0 | 0.00 | 0.00 | 0.00 | 39 | 1173.0 |
| 20260504081222 | 62 | 43 | 2.0 | 2.0 | 0.00 | 0.00 | 0.00 | 39 | 1173.1 |
| 20260504080718 | 62 | 31 | 1.0 | 3.0 | 0.00 | 0.00 | 0.00 | 41 | 1173.1 |
| 20260504080215 | 61 | 26 | 1.0 | 2.0 | 0.00 | 0.00 | 0.00 | 41 | 1173.1 |
| 20260504070142 | 62 | 31 | 4.0 | 4.0 | 0.00 | 0.00 | 0.00 | 43 | 1173.1 |
| 20260504050531 | 63 | 352 | 3.0 | 6.0 | 0.00 | 0.00 | 0.00 | 45 | 1173.5 |
| 20260504045525 | 63 | 343 | 3.0 | 4.0 | 0.00 | 0.00 | 0.00 | 45 | 1173.6 |
| 20260504045020 | 63 | 344 | 4.0 | 4.0 | 0.00 | 0.00 | 0.00 | 45 | 1173.6 |
| 20260504044518 | 64 | 329 | 3.0 | 4.0 | 0.00 | 0.00 | 0.00 | 45 | 1173.6 |
| 20260504044015 | 64 | 337 | 4.0 | 4.0 | 0.00 | 0.00 | 0.00 | 45 | 1173.5 |
| 20260504043512 | 63 | 349 | 4.0 | 4.0 | 0.00 | 0.00 | 0.00 | 45 | 1173.5 |
| 20260504043009 | 63 | 334 | 3.0 | 3.0 | 0.00 | 0.00 | 0.00 | 44 | 1173.6 |
| 20260504042506 | 63 | 339 | 3.0 | 4.0 | 0.00 | 0.00 | 0.00 | 45 | 1173.5 |
| 20260504042003 | 63 | 326 | 4.0 | 4.0 | 0.00 | 0.00 | 0.00 | 44 | 1173.5 |
| 20260504041459 | 63 | 321 | 4.0 | 6.0 | 0.00 | 0.00 | 0.00 | 44 | 1173.5 |
| 20260504040954 | 63 | 338 | 2.0 | 3.0 | 0.00 | 0.00 | 0.00 | 44 | 1173.6 |
| 20260504040453 | 63 | 345 | 3.0 | 3.0 | 0.00 | 0.00 | 0.00 | 44 | 1173.5 |
| 20260504035948 | 64 | 1 | 2.0 | 3.0 | 0.00 | 0.00 | 0.00 | 43 | 1173.6 |
| 20260504035446 | 63 | 15 | 0.0 | 0.0 | 0.00 | 0.00 | 0.00 | 43 | 1173.5 |
| 20260504034942 | 63 | 354 | 0.0 | 0.0 | 0.00 | 0.00 | 0.00 | 43 | 1173.4 |
| 20260504034440 | 63 | 351 | 0.0 | 0.0 | 0.00 | 0.00 | 0.00 | 44 | 1173.3 |
| 20260504033937 | 63 | 357 | 0.0 | 0.0 | 0.00 | 0.00 | 0.00 | 44 | 1173.4 |
| 20260504033434 | 63 | 354 | 0.0 | 0.0 | 0.00 | 0.00 | 0.00 | 44 | 1173.0 |
| 20260504032932 | 63 | 338 | 0.0 | 0.0 | 0.00 | 0.00 | 0.00 | 44 | 1173.3 |
| 20260504032429 | 62 | 355 | 0.0 | 0.0 | 0.00 | 0.00 | 0.00 | 46 | 1173.4 |
| 20260504031925 | 63 | 4 | 0.0 | 0.0 | 0.00 | 0.00 | 0.00 | 46 | 1173.0 |
| 20260504031422 | 63 | 5 | 0.0 | 0.0 | 0.00 | 0.00 | 0.00 | 45 | 1173.0 |
| 20260504030919 | 64 | 6 | 0.0 | 0.0 | 0.00 | 0.00 | 0.00 | 45 | 1173.3 |
| 20260504030416 | 65 | 5 | 0.0 | 0.0 | 0.00 | 0.00 | 0.00 | 44 | 1173.3 |
| 20260504025912 | 65 | 223 | 1.0 | 2.0 | 0.00 | 0.00 | 0.00 | 43 | 1173.3 |
| 20260504025409 | 66 | 204 | 2.0 | 3.0 | 0.00 | 0.00 | 0.00 | 42 | 1173.1 |
| 20260504024906 | 67 | 202 | 4.0 | 4.0 | 0.00 | 0.00 | 0.00 | 40 | 1173.1 |
| 20260504024403 | 69 | 342 | 0.0 | 0.0 | 0.00 | 0.00 | 0.00 | 40 | 1173.1 |
| 20260504023900 | 69 | 315 | 0.0 | 0.0 | 0.00 | 0.00 | 0.00 | 39 | 1173.0 |
| 20260504023356 | 68 | 324 | 1.0 | 1.0 | 0.00 | 0.00 | 0.00 | 38 | 1173.3 |
| 20260504022851 | 68 | 333 | 0.0 | 1.0 | 0.00 | 0.00 | 0.00 | 39 | 1173.0 |
| 20260504022348 | 69 | 228 | 2.0 | 2.0 | 0.00 | 0.00 | 0.00 | 38 | 1173.1 |
| 20260504021845 | 69 | 324 | 1.0 | 3.0 | 0.00 | 0.00 | 0.00 | 39 | 1173.1 |
| 20260504021343 | 69 | 283 | 2.0 | 3.0 | 0.00 | 0.00 | 0.00 | 39 | 1173.3 |
| 20260504020840 | 69 | 222 | 2.0 | 3.0 | 0.00 | 0.00 | 0.00 | 39 | 1173.1 |
| 20260504020336 | 69 | 227 | 2.0 | 6.0 | 0.00 | 0.00 | 0.00 | 38 | 1173.4 |
| 20260504015832 | 69 | 203 | 2.0 | 4.0 | 0.00 | 0.00 | 0.00 | 38 | 1173.1 |
| 20260504015328 | 69 | 224 | 4.0 | 7.0 | 0.00 | 0.00 | 0.00 | 38 | 1173.4 |
| 20260504014825 | 70 | 234 | 3.0 | 4.0 | 0.00 | 0.00 | 0.00 | 39 | 1173.5 |
| 20260504014321 | 70 | 252 | 4.0 | 7.0 | 0.00 | 0.00 | 0.00 | 37 | 1173.4 |
| 20260504013819 | 70 | 297 | 3.0 | 4.0 | 0.00 | 0.00 | 0.00 | 37 | 1173.4 |
| 20260504013316 | 70 | 278 | 4.0 | 6.0 | 0.00 | 0.00 | 0.00 | 36 | 1173.5 |
| 20260504012813 | 70 | 215 | 3.0 | 6.0 | 0.00 | 0.00 | 0.00 | 36 | 1173.5 |
| 20260504012311 | 70 | 209 | 3.0 | 6.0 | 0.00 | 0.00 | 0.00 | 37 | 1173.6 |
| 20260504011808 | 71 | 308 | 6.0 | 8.0 | 0.00 | 0.00 | 0.00 | 36 | 1173.5 |
| 20260504011304 | 71 | 296 | 3.0 | 6.0 | 0.00 | 0.00 | 0.00 | 36 | 1173.4 |
| 20260504010800 | 71 | 244 | 4.0 | 7.0 | 0.00 | 0.00 | 0.00 | 37 | 1173.6 |
| 20260504010256 | 71 | 278 | 4.0 | 7.0 | 0.00 | 0.00 | 0.00 | 37 | 1173.6 |
| 20260504005753 | 70 | 222 | 4.0 | 6.0 | 0.00 | 0.00 | 0.00 | 36 | 1173.7 |
| 20260504005250 | 70 | 206 | 5.0 | 7.0 | 0.00 | 0.00 | 0.00 | 36 | 1173.8 |
| 20260504004748 | 71 | 216 | 7.0 | 10.0 | 0.00 | 0.00 | 0.00 | 35 | 1173.7 |
| 20260504004245 | 71 | 251 | 3.0 | 8.0 | 0.00 | 0.00 | 0.00 | 36 | 1173.8 |
| 20260504003741 | 71 | 299 | 4.0 | 6.0 | 0.00 | 0.00 | 0.00 | 34 | 1173.9 |
| 20260504003238 | 71 | 284 | 3.0 | 6.0 | 0.00 | 0.00 | 0.00 | 35 | 1173.9 |
| 20260504002734 | 71 | 275 | 4.0 | 6.0 | 0.00 | 0.00 | 0.00 | 36 | 1174.0 |
| 20260504002232 | 71 | 215 | 3.0 | 7.0 | 0.00 | 0.00 | 0.00 | 34 | 1174.0 |
| 20260504001729 | 72 | 215 | 6.0 | 8.0 | 0.00 | 0.00 | 0.00 | 36 | 1174.2 |
| 20260504001226 | 71 | 329 | 1.0 | 4.0 | 0.00 | 0.00 | 0.00 | 34 | 1174.2 |
| 20260504000722 | 72 | 250 | 3.0 | 6.0 | 0.00 | 0.00 | 0.00 | 35 | 1174.3 |
| 20260504000219 | 72 | 242 | 4.0 | 8.0 | 0.00 | 0.00 | 0.00 | 35 | 1174.2 |
| 20260503235718 | 71 | 301 | 4.0 | 6.0 | 0.00 | 0.00 | 0.00 | 37 | 1174.3 |
| 20260503235215 | 71 | 212 | 4.0 | 6.0 | 0.00 | 0.00 | 0.00 | 33 | 1174.4 |
| 20260503234712 | 71 | 279 | 3.0 | 10.0 | 0.00 | 0.00 | 0.00 | 35 | 1174.5 |
| 20260503234210 | 71 | 237 | 4.0 | 9.0 | 0.00 | 0.00 | 0.00 | 35 | 1174.4 |
| 20260503233707 | 72 | 342 | 7.0 | 10.0 | 0.00 | 0.00 | 0.00 | 32 | 1174.5 |
| 20260503233202 | 72 | 309 | 3.0 | 4.0 | 0.00 | 0.00 | 0.00 | 32 | 1174.4 |
| 20260503232700 | 71 | 238 | 3.0 | 8.0 | 0.00 | 0.00 | 0.00 | 32 | 1174.5 |
| 20260503232157 | 71 | 277 | 3.0 | 6.0 | 0.00 | 0.00 | 0.00 | 32 | 1174.7 |
| 20260503231655 | 72 | 257 | 6.0 | 7.0 | 0.00 | 0.00 | 0.00 | 33 | 1174.7 |
| 20260503231151 | 72 | 243 | 4.0 | 7.0 | 0.00 | 0.00 | 0.00 | 32 | 1175.1 |
| 20260503230648 | 72 | 329 | 3.0 | 8.0 | 0.00 | 0.00 | 0.00 | 34 | 1174.8 |
| 20260503230146 | 72 | 262 | 5.0 | 6.0 | 0.00 | 0.00 | 0.00 | 34 | 1174.9 |
| 20260503225642 | 72 | 258 | 2.0 | 3.0 | 0.00 | 0.00 | 0.00 | 34 | 1174.7 |
| 20260503225142 | 73 | 269 | 2.0 | 3.0 | 0.00 | 0.00 | 0.00 | 33 | 1175.1 |
| 20260503224640 | 72 | 304 | 3.0 | 4.0 | 0.00 | 0.00 | 0.00 | 31 | 1175.4 |
| 20260503224138 | 71 | 299 | 5.0 | 6.0 | 0.00 | 0.00 | 0.00 | 32 | 1175.2 |
| 20260503223635 | 70 | 303 | 9.0 | 11.0 | 0.00 | 0.00 | 0.00 | 33 | 1175.2 |
| 20260503223131 | 70 | 263 | 9.0 | 11.0 | 0.00 | 0.00 | 0.00 | 34 | 1175.3 |
| 20260503222629 | 72 | 279 | 2.0 | 9.0 | 0.00 | 0.00 | 0.00 | 33 | 1175.5 |
| 20260503222126 | 71 | 302 | 2.0 | 6.0 | 0.00 | 0.00 | 0.00 | 35 | 1175.6 |
| 20260503221625 | 71 | 296 | 7.0 | 8.0 | 0.00 | 0.00 | 0.00 | 32 | 1175.5 |
| 20260503221122 | 71 | 160 | 9.0 | 10.0 | 0.00 | 0.00 | 0.00 | 33 | 1175.6 |
| 20260503220618 | 71 | 351 | 0.0 | 3.0 | 0.00 | 0.00 | 0.00 | 34 | 1175.6 |
| 20260503220115 | 70 | 241 | 3.0 | 7.0 | 0.00 | 0.00 | 0.00 | 33 | 1175.8 |
| 20260503215612 | 70 | 206 | 6.0 | 9.0 | 0.00 | 0.00 | 0.00 | 35 | 1175.7 |
| 20260503215108 | 70 | 223 | 5.0 | 8.0 | 0.00 | 0.00 | 0.00 | 33 | 1176.0 |
| 20260503214607 | 70 | 283 | 7.0 | 8.0 | 0.00 | 0.00 | 0.00 | 33 | 1175.7 |
| 20260503214103 | 70 | 161 | 1.0 | 7.0 | 0.00 | 0.00 | 0.00 | 33 | 1176.0 |
| 20260503213602 | 71 | 262 | 5.0 | 11.0 | 0.00 | 0.00 | 0.00 | 35 | 1176.0 |
| 20260503213058 | 72 | 310 | 6.0 | 10.0 | 0.00 | 0.00 | 0.00 | 35 | 1175.8 |
| 20260503212556 | 70 | 11 | 1.0 | 2.0 | 0.00 | 0.00 | 0.00 | 36 | 1176.1 |
| 20260503212053 | 70 | 3 | 6.0 | 8.0 | 0.00 | 0.00 | 0.00 | 36 | 1176.0 |
| 20260503211550 | 71 | 273 | 7.0 | 8.0 | 0.00 | 0.00 | 0.00 | 35 | 1176.3 |
| 20260503211045 | 69 | 6 | 1.0 | 2.0 | 0.00 | 0.00 | 0.00 | 35 | 1176.2 |
| 20260503210542 | 70 | 12 | 5.0 | 7.0 | 0.00 | 0.00 | 0.00 | 35 | 1176.4 |
| 20260503210038 | 68 | 317 | 2.0 | 6.0 | 0.00 | 0.00 | 0.00 | 36 | 1176.4 |
| 20260503205535 | 69 | 297 | 3.0 | 4.0 | 0.00 | 0.00 | 0.00 | 38 | 1176.3 |
| 20260503205031 | 68 | 24 | 4.0 | 8.0 | 0.00 | 0.00 | 0.00 | 38 | 1176.5 |
| 20260503204528 | 69 | 353 | 7.0 | 8.0 | 0.00 | 0.00 | 0.00 | 37 | 1176.5 |
| 20260503204025 | 69 | 328 | 4.0 | 7.0 | 0.00 | 0.00 | 0.00 | 36 | 1176.7 |
| 20260503203523 | 69 | 28 | 4.0 | 8.0 | 0.00 | 0.00 | 0.00 | 35 | 1176.6 |
| 20260503203020 | 69 | 309 | 4.0 | 8.0 | 0.00 | 0.00 | 0.00 | 37 | 1176.6 |
| 20260503202517 | 68 | 70 | 6.0 | 7.0 | 0.00 | 0.00 | 0.00 | 37 | 1176.5 |
| 20260503202015 | 69 | 288 | 2.0 | 8.0 | 0.00 | 0.00 | 0.00 | 37 | 1176.9 |
| 20260503201513 | 70 | 322 | 4.0 | 6.0 | 0.00 | 0.00 | 0.00 | 36 | 1176.7 |
| 20260503201010 | 69 | 345 | 6.0 | 8.0 | 0.00 | 0.00 | 0.00 | 36 | 1176.9 |
| 20260503200506 | 67 | 10 | 2.0 | 6.0 | 0.00 | 0.00 | 0.00 | 40 | 1177.0 |
| 20260503200003 | 67 | 15 | 0.0 | 4.0 | 0.00 | 0.00 | 0.00 | 35 | 1176.9 |
| 20260503195500 | 69 | 8 | 7.0 | 9.0 | 0.00 | 0.00 | 0.00 | 34 | 1176.9 |
| 20260503194956 | 68 | 32 | 6.0 | 9.0 | 0.00 | 0.00 | 0.00 | 33 | 1177.0 |
| 20260503194454 | 67 | 3 | 7.0 | 9.0 | 0.00 | 0.00 | 0.00 | 35 | 1177.1 |
| 20260503193949 | 67 | 46 | 4.0 | 9.0 | 0.00 | 0.00 | 0.00 | 34 | 1177.3 |
| 20260503193445 | 67 | 40 | 4.0 | 7.0 | 0.00 | 0.00 | 0.00 | 34 | 1177.1 |
| 20260503192940 | 69 | 45 | 2.0 | 4.0 | 0.00 | 0.00 | 0.00 | 34 | 1177.3 |
| 20260503192437 | 67 | 359 | 1.0 | 7.0 | 0.00 | 0.00 | 0.00 | 35 | 1177.4 |
| 20260503191932 | 68 | 289 | 7.0 | 9.0 | 0.00 | 0.00 | 0.00 | 35 | 1177.4 |
| 20260503191431 | 69 | 10 | 4.0 | 11.0 | 0.00 | 0.00 | 0.00 | 36 | 1177.3 |
| 20260503190927 | 68 | 100 | 3.0 | 4.0 | 0.00 | 0.00 | 0.00 | 39 | 1177.2 |
| 20260503190424 | 66 | 276 | 4.0 | 7.0 | 0.00 | 0.00 | 0.00 | 35 | 1177.5 |
| 20260503185921 | 67 | 223 | 2.0 | 4.0 | 0.00 | 0.00 | 0.00 | 35 | 1177.4 |
| 20260503185418 | 67 | 8 | 9.0 | 9.0 | 0.00 | 0.00 | 0.00 | 34 | 1177.6 |